| time (UTC) | temp C | wind direction | speed KPH | gust KPH | rain 1hr cm | rain 24hr cm | rain mn cm | humidity % | barometer mb |
| 20260505114554 | 14 | 215 | 4.8 | 11.3 | 0.00 | 0.48 | 0.48 | 84 | 1004.9 |
| 20260505114053 | 13 | 209 | 6.4 | 9.7 | 0.00 | 0.48 | 0.48 | 84 | 1004.8 |
| 20260505113532 | 13 | 214 | 8.0 | 11.3 | 0.00 | 0.48 | 0.48 | 84 | 1004.9 |
| 20260505113033 | 13 | 208 | 6.4 | 11.3 | 0.00 | 0.48 | 0.48 | 85 | 1004.4 |
| 20260505112553 | 13 | 218 | 6.4 | 8.0 | 0.00 | 0.48 | 0.48 | 85 | 1004.4 |
| 20260505112033 | 13 | 217 | 4.8 | 9.7 | 0.00 | 0.48 | 0.48 | 85 | 1004.4 |
| 20260505111533 | 13 | 214 | 4.8 | 11.3 | 0.00 | 0.48 | 0.48 | 85 | 1004.4 |
| 20260505111033 | 13 | 219 | 6.4 | 11.3 | 0.00 | 0.48 | 0.48 | 84 | 1004.4 |
| 20260505110553 | 13 | 213 | 6.4 | 12.9 | 0.00 | 0.48 | 0.48 | 84 | 1004.4 |
| 20260505102033 | 14 | 203 | 6.4 | 14.5 | 0.00 | 0.48 | 0.48 | 82 | 1003.9 |
| 20260505101533 | 14 | 213 | 6.4 | 11.3 | 0.00 | 0.48 | 0.48 | 82 | 1003.5 |
| 20260505101033 | 14 | 213 | 6.4 | 11.3 | 0.00 | 0.48 | 0.48 | 82 | 1003.5 |
| 20260505100533 | 14 | 224 | 4.8 | 9.7 | 0.00 | 0.48 | 0.48 | 82 | 1003.5 |
| 20260505100033 | 14 | 233 | 6.4 | 11.3 | 0.00 | 0.48 | 0.48 | 81 | 1003.5 |
| 20260505095532 | 14 | 223 | 6.4 | 16.1 | 0.00 | 0.48 | 0.48 | 81 | 1003.5 |
| 20260505095032 | 15 | 228 | 6.4 | 9.7 | 0.00 | 0.48 | 0.48 | 81 | 1003.5 |
| 20260505094533 | 15 | 232 | 6.4 | 11.3 | 0.00 | 0.48 | 0.48 | 80 | 1003.5 |
| 20260505094053 | 15 | 228 | 9.7 | 16.1 | 0.00 | 0.48 | 0.48 | 80 | 1003.5 |
| 20260505093533 | 15 | 217 | 9.7 | 16.1 | 0.00 | 0.48 | 0.48 | 80 | 1003.5 |
| 20260505093032 | 15 | 222 | 9.7 | 17.7 | 0.00 | 0.48 | 0.48 | 80 | 1003.5 |
| 20260505092533 | 15 | 225 | 8.0 | 17.7 | 0.00 | 0.48 | 0.48 | 80 | 1003.5 |
| 20260505092033 | 15 | 213 | 9.7 | 19.3 | 0.00 | 0.48 | 0.48 | 80 | 1003.5 |
| 20260505091553 | 15 | 220 | 9.7 | 17.7 | 0.00 | 0.48 | 0.48 | 81 | 1003.5 |
| 20260505091032 | 15 | 218 | 9.7 | 16.1 | 0.00 | 0.48 | 0.48 | 81 | 1003.5 |
| 20260505090553 | 14 | 218 | 8.0 | 16.1 | 0.00 | 0.48 | 0.48 | 82 | 1003.5 |
| 20260505090033 | 14 | 229 | 9.7 | 16.1 | 0.00 | 0.48 | 0.48 | 82 | 1003.5 |
| 20260505085533 | 14 | 219 | 8.0 | 16.1 | 0.00 | 0.48 | 0.48 | 82 | 1003.5 |
| 20260505085033 | 14 | 219 | 6.4 | 14.5 | 0.00 | 0.48 | 0.48 | 83 | 1003.5 |
| 20260505084613 | 15 | 226 | 9.7 | 17.7 | 0.00 | 0.48 | 0.48 | 82 | 1003.5 |
| 20260505084054 | 15 | 214 | 9.7 | 14.5 | 0.00 | 0.48 | 0.48 | 83 | 1002.8 |
| 20260505083533 | 15 | 220 | 8.0 | 17.7 | 0.00 | 0.48 | 0.48 | 83 | 1002.8 |
| 20260505083033 | 15 | 219 | 8.0 | 19.3 | 0.00 | 0.48 | 0.48 | 83 | 1002.9 |
| 20260505082533 | 15 | 218 | 8.0 | 14.5 | 0.00 | 0.48 | 0.48 | 83 | 1002.9 |
| 20260505082052 | 15 | 215 | 8.0 | 12.9 | 0.00 | 0.48 | 0.48 | 83 | 1002.9 |
| 20260505081533 | 15 | 217 | 9.7 | 14.5 | 0.00 | 0.48 | 0.48 | 83 | 1002.9 |
| 20260505081033 | 14 | 206 | 8.0 | 12.9 | 0.00 | 0.48 | 0.48 | 84 | 1002.5 |
| 20260505080533 | 14 | 218 | 8.0 | 16.1 | 0.00 | 0.48 | 0.48 | 84 | 1002.5 |
| 20260505080033 | 14 | 207 | 8.0 | 11.3 | 0.00 | 0.48 | 0.48 | 84 | 1002.5 |
| 20260505075532 | 14 | 212 | 8.0 | 14.5 | 0.00 | 0.48 | 0.48 | 85 | 1002.5 |
| 20260505075032 | 14 | 219 | 8.0 | 14.5 | 0.00 | 0.48 | 0.48 | 85 | 1002.5 |
| 20260505074533 | 14 | 218 | 6.4 | 12.9 | 0.00 | 0.48 | 0.48 | 85 | 1002.2 |
| 20260505074033 | 14 | 211 | 8.0 | 16.1 | 0.00 | 0.48 | 0.48 | 85 | 1002.2 |
| 20260505073533 | 14 | 204 | 8.0 | 14.5 | 0.00 | 0.48 | 0.48 | 85 | 1002.5 |
| 20260505073033 | 14 | 223 | 6.4 | 11.3 | 0.00 | 0.48 | 0.48 | 86 | 1002.5 |
| 20260505072532 | 14 | 216 | 6.4 | 11.3 | 0.00 | 0.48 | 0.48 | 86 | 1002.5 |
| 20260505072033 | 14 | 227 | 6.4 | 11.3 | 0.00 | 0.48 | 0.48 | 87 | 1002.5 |
| 20260505071553 | 14 | 212 | 4.8 | 9.7 | 0.00 | 0.48 | 0.48 | 86 | 1002.5 |
| 20260505071032 | 14 | 207 | 4.8 | 11.3 | 0.00 | 0.48 | 0.48 | 85 | 1002.8 |
| 20260505070532 | 15 | 195 | 4.8 | 8.0 | 0.00 | 0.48 | 0.48 | 85 | 1002.8 |
| 20260505070032 | 15 | 217 | 6.4 | 9.7 | 0.00 | 0.48 | 0.48 | 84 | 1002.8 |
| 20260505065533 | 15 | 210 | 6.4 | 14.5 | 0.00 | 0.48 | 0.48 | 83 | 1002.8 |
| 20260505065033 | 15 | 209 | 8.0 | 17.7 | 0.00 | 0.48 | 0.48 | 83 | 1002.8 |
| 20260505064532 | 15 | 207 | 9.7 | 16.1 | 0.00 | 0.48 | 0.48 | 83 | 1002.8 |
| 20260505064033 | 15 | 203 | 8.0 | 16.1 | 0.03 | 0.48 | 0.48 | 84 | 1002.8 |
| 20260505063533 | 15 | 215 | 6.4 | 11.3 | 0.03 | 0.48 | 0.48 | 84 | 1002.5 |
| 20260505063033 | 15 | 216 | 6.4 | 11.3 | 0.03 | 0.48 | 0.48 | 85 | 1002.5 |
| 20260505062533 | 15 | 214 | 8.0 | 14.5 | 0.03 | 0.48 | 0.48 | 84 | 1002.5 |
| 20260505062032 | 15 | 218 | 6.4 | 12.9 | 0.03 | 0.48 | 0.48 | 85 | 1002.5 |
| 20260505061532 | 15 | 206 | 4.8 | 9.7 | 0.03 | 0.48 | 0.48 | 86 | 1002.5 |
| 20260505061032 | 15 | 212 | 6.4 | 12.9 | 0.03 | 0.48 | 0.48 | 87 | 1002.8 |
| 20260505060533 | 15 | 208 | 6.4 | 12.9 | 0.05 | 0.48 | 0.48 | 87 | 1002.8 |
| 20260505060033 | 15 | 198 | 9.7 | 17.7 | 0.10 | 0.48 | 0.48 | 87 | 1002.8 |
| 20260505055553 | 15 | 213 | 11.3 | 20.9 | 0.13 | 0.48 | 0.48 | 87 | 1002.8 |
| 20260505055053 | 15 | 206 | 11.3 | 19.3 | 0.15 | 0.48 | 0.48 | 86 | 1002.5 |
| 20260505054533 | 15 | 227 | 8.0 | 16.1 | 0.15 | 0.48 | 0.48 | 87 | 1002.5 |
| 20260505054033 | 15 | 208 | 11.3 | 17.7 | 0.13 | 0.46 | 0.46 | 86 | 1003.1 |
| 20260505053533 | 15 | 203 | 11.3 | 22.5 | 0.13 | 0.46 | 0.46 | 86 | 1003.1 |
| 20260505053032 | 15 | 218 | 9.7 | 16.1 | 0.15 | 0.46 | 0.46 | 86 | 1003.1 |
| 20260505052532 | 15 | 214 | 9.7 | 19.3 | 0.18 | 0.46 | 0.46 | 86 | 1003.1 |
| 20260505052034 | 15 | 205 | 11.3 | 19.3 | 0.18 | 0.46 | 0.46 | 85 | 1003.1 |
| 20260505051533 | 15 | 208 | 8.0 | 14.5 | 0.20 | 0.46 | 0.46 | 85 | 1003.1 |
| 20260505051033 | 15 | 212 | 6.4 | 11.3 | 0.20 | 0.46 | 0.46 | 83 | 1003.5 |
| 20260505050532 | 15 | 223 | 9.7 | 19.3 | 0.18 | 0.43 | 0.43 | 81 | 1003.5 |
| 20260505014032 | 19 | 213 | 11.3 | 17.7 | 0.00 | 0.00 | 0.00 | 60 | 1001.9 |
| 20260505013032 | 19 | 219 | 8.0 | 14.5 | 0.00 | 0.00 | 0.00 | 61 | 1001.9 |
| 20260505012533 | 19 | 218 | 9.7 | 17.7 | 0.00 | 0.00 | 0.00 | 61 | 1001.9 |
| 20260505012033 | 19 | 213 | 11.3 | 24.1 | 0.00 | 0.00 | 0.00 | 62 | 1001.5 |
| 20260505011613 | 18 | 214 | 12.9 | 19.3 | 0.00 | 0.00 | 0.00 | 64 | 1001.5 |
| 20260505011033 | 18 | 200 | 8.0 | 12.9 | 0.00 | 0.00 | 0.00 | 67 | 1001.5 |
| 20260505010033 | 18 | 213 | 8.0 | 12.9 | 2.59 | 9.04 | 9.04 | 68 | 1001.8 |
| 20260505005553 | 17 | 210 | 8.0 | 12.9 | 3.23 | 9.04 | 9.04 | 70 | 1002.1 |
| 20260505005032 | 17 | 200 | 4.8 | 11.3 | 5.16 | 9.04 | 9.04 | 75 | 1002.1 |
| 20260505004533 | 17 | 207 | 3.2 | 6.4 | 5.16 | 9.04 | 9.04 | 77 | 1002.1 |
| 20260505004113 | 17 | 203 | 3.2 | 4.8 | 5.16 | 9.04 | 9.04 | 77 | 1002.1 |
| 20260505003533 | 17 | 206 | 3.2 | 6.4 | 5.16 | 9.04 | 9.04 | 76 | 1002.1 |
| 20260505003032 | 17 | 218 | 3.2 | 4.8 | 5.82 | 9.04 | 9.04 | 76 | 1002.0 |
| 20260505002533 | 17 | 205 | 3.2 | 6.4 | 5.82 | 9.04 | 9.04 | 76 | 1002.0 |
| 20260505002033 | 17 | 218 | 8.0 | 16.1 | 5.82 | 9.04 | 9.04 | 73 | 1002.0 |
| 20260505001533 | 17 | 214 | 9.7 | 20.9 | 5.82 | 9.04 | 9.04 | 73 | 1002.0 |
| 20260505001033 | 16 | 220 | 12.9 | 27.4 | 6.45 | 9.04 | 9.04 | 76 | 1002.0 |
| 20260505000532 | 17 | 235 | 14.5 | 25.7 | 7.75 | 8.38 | 8.38 | 73 | 1002.0 |
| 20260505000032 | 17 | 252 | 12.9 | 25.7 | 5.82 | 6.45 | 6.45 | 74 | 1001.9 |
| 20260504235532 | 16 | 266 | 8.0 | 19.3 | 5.82 | 5.82 | 5.82 | 83 | 1001.9 |
| 20260504235032 | 16 | 216 | 3.2 | 6.4 | 3.86 | 3.86 | 3.86 | 83 | 1001.9 |
| 20260504234534 | 16 | 247 | 3.2 | 8.0 | 3.86 | 3.86 | 3.86 | 85 | 1001.9 |
| 20260504234032 | 16 | 164 | 1.6 | 3.2 | 3.86 | 3.86 | 3.86 | 84 | 1000.9 |
| 20260504233553 | 16 | 220 | 3.2 | 8.0 | 3.86 | 3.86 | 3.86 | 81 | 1000.9 |
| 20260504233033 | 16 | 231 | 6.4 | 12.9 | 3.23 | 3.23 | 3.23 | 79 | 1000.9 |
| 20260504232532 | 16 | 206 | 9.7 | 20.9 | 3.23 | 3.23 | 3.23 | 78 | 1000.9 |
| 20260504232033 | 17 | 220 | 9.7 | 16.1 | 3.23 | 3.23 | 3.23 | 77 | 1000.6 |
| 20260504231532 | 17 | 233 | 12.9 | 22.5 | 3.23 | 3.23 | 3.23 | 74 | 1000.6 |
| 20260504231032 | 17 | 243 | 20.9 | 40.2 | 2.59 | 2.59 | 2.59 | 70 | 1000.6 |
| 20260504230533 | 19 | 238 | 17.7 | 37.0 | 0.64 | 0.64 | 0.64 | 61 | 1000.7 |
| 20260504230033 | 21 | 224 | 24.1 | 41.8 | 0.64 | 0.64 | 0.64 | 50 | 1000.8 |
| 20260504225532 | 23 | 226 | 16.1 | 40.2 | 0.00 | 0.00 | 0.00 | 45 | 1000.8 |
| 20260504225033 | 23 | 221 | 11.3 | 20.9 | 0.00 | 0.00 | 0.00 | 46 | 1000.8 |
| 20260504224532 | 23 | 216 | 12.9 | 19.3 | 0.00 | 0.00 | 0.00 | 46 | 1001.2 |
| 20260504224053 | 23 | 215 | 12.9 | 22.5 | 0.00 | 0.00 | 0.00 | 46 | 1001.5 |
| 20260504223533 | 24 | 217 | 11.3 | 25.7 | 0.00 | 0.00 | 0.00 | 46 | 1001.5 |
| 20260504223032 | 25 | 219 | 9.7 | 16.1 | 0.00 | 0.00 | 0.00 | 45 | 1001.6 |
| 20260504222532 | 25 | 221 | 12.9 | 20.9 | 0.00 | 0.00 | 0.00 | 43 | 1001.6 |
| 20260504222033 | 25 | 221 | 12.9 | 20.9 | 0.00 | 0.00 | 0.00 | 43 | 1001.6 |
| 20260504221533 | 24 | 217 | 9.7 | 24.1 | 0.00 | 0.00 | 0.00 | 44 | 1001.6 |
| 20260504221034 | 24 | 230 | 12.9 | 22.5 | 0.00 | 0.00 | 0.00 | 44 | 1001.9 |
| 20260504220532 | 25 | 223 | 14.5 | 25.7 | 0.00 | 0.00 | 0.00 | 43 | 1001.9 |
| 20260504220033 | 25 | 221 | 16.1 | 29.0 | 0.00 | 0.00 | 0.00 | 42 | 1002.0 |
| 20260504215532 | 25 | 220 | 11.3 | 22.5 | 0.00 | 0.00 | 0.00 | 44 | 1002.0 |
| 20260504215034 | 25 | 212 | 14.5 | 27.4 | 0.00 | 0.00 | 0.00 | 42 | 1002.0 |
| 20260504214533 | 25 | 221 | 14.5 | 25.7 | 0.00 | 0.00 | 0.00 | 42 | 1002.0 |
| 20260504214032 | 26 | 214 | 12.9 | 27.4 | 0.00 | 0.00 | 0.00 | 42 | 1002.3 |
| 20260504213532 | 25 | 224 | 12.9 | 22.5 | 0.00 | 0.00 | 0.00 | 43 | 1002.3 |
| 20260504213053 | 25 | 223 | 17.7 | 30.6 | 0.00 | 0.00 | 0.00 | 42 | 1002.3 |
| 20260504212533 | 25 | 218 | 14.5 | 22.5 | 0.00 | 0.00 | 0.00 | 42 | 1002.3 |
| 20260504212033 | 24 | 224 | 16.1 | 25.7 | 0.00 | 0.00 | 0.00 | 44 | 1002.2 |
| 20260504211532 | 25 | 215 | 12.9 | 25.7 | 0.00 | 0.00 | 0.00 | 43 | 1002.3 |
| 20260504211032 | 25 | 219 | 17.7 | 32.2 | 0.00 | 0.00 | 0.00 | 41 | 1002.6 |
| 20260504210533 | 25 | 219 | 17.7 | 27.4 | 0.00 | 0.00 | 0.00 | 41 | 1002.6 |
| 20260504210059 | 25 | 213 | 19.3 | 33.8 | 0.00 | 0.00 | 0.00 | 41 | 1002.6 |
| 20260504205553 | 25 | 214 | 14.5 | 30.6 | 0.00 | 0.00 | 0.00 | 40 | 1002.6 |
| 20260504205032 | 24 | 218 | 16.1 | 27.4 | 0.00 | 0.00 | 0.00 | 41 | 1002.6 |
| 20260504204532 | 23 | 226 | 16.1 | 29.0 | 0.00 | 0.00 | 0.00 | 41 | 1002.6 |
| 20260504204032 | 24 | 211 | 17.7 | 30.6 | 0.00 | 0.00 | 0.00 | 40 | 1002.9 |
| 20260504203533 | 24 | 211 | 16.1 | 29.0 | 0.00 | 0.00 | 0.00 | 39 | 1002.9 |
| 20260504203033 | 25 | 215 | 16.1 | 25.7 | 0.00 | 0.00 | 0.00 | 38 | 1002.9 |
| 20260504202532 | 24 | 229 | 14.5 | 25.7 | 0.00 | 0.00 | 0.00 | 38 | 1002.9 |
| 20260504202112 | 24 | 219 | 20.9 | 35.4 | 0.00 | 0.00 | 0.00 | 37 | 1002.9 |
| 20260504201533 | 25 | 215 | 14.5 | 25.7 | 0.00 | 0.00 | 0.00 | 36 | 1002.9 |
| 20260504201033 | 25 | 213 | 14.5 | 25.7 | 0.00 | 0.00 | 0.00 | 35 | 1002.9 |
| 20260504200532 | 25 | 208 | 16.1 | 33.8 | 0.00 | 0.00 | 0.00 | 35 | 1003.2 |
| 20260504200033 | 25 | 210 | 19.3 | 33.8 | 0.00 | 0.00 | 0.00 | 35 | 1003.3 |
| 20260504195533 | 25 | 225 | 20.9 | 38.6 | 0.00 | 0.00 | 0.00 | 35 | 1003.3 |
| 20260504195033 | 24 | 211 | 12.9 | 22.5 | 0.00 | 0.00 | 0.00 | 35 | 1003.3 |
| 20260504194532 | 24 | 217 | 19.3 | 29.0 | 0.00 | 0.00 | 0.00 | 35 | 1003.2 |
| 20260504194032 | 24 | 228 | 17.7 | 27.4 | 0.00 | 0.00 | 0.00 | 34 | 1003.2 |
| 20260504193532 | 25 | 211 | 12.9 | 27.4 | 0.00 | 0.00 | 0.00 | 34 | 1003.3 |
| 20260504193032 | 25 | 210 | 14.5 | 29.0 | 0.00 | 0.00 | 0.00 | 35 | 1003.3 |
| 20260504192533 | 25 | 213 | 12.9 | 27.4 | 0.00 | 0.00 | 0.00 | 35 | 1003.6 |
| 20260504192033 | 24 | 212 | 17.7 | 30.6 | 0.00 | 0.00 | 0.00 | 34 | 1003.3 |
| 20260504191552 | 24 | 216 | 17.7 | 33.8 | 0.00 | 0.00 | 0.00 | 34 | 1003.2 |
| 20260504191053 | 24 | 221 | 19.3 | 32.2 | 0.00 | 0.00 | 0.00 | 34 | 1003.6 |
| 20260504190532 | 24 | 205 | 14.5 | 30.6 | 0.00 | 0.00 | 0.00 | 34 | 1003.6 |
| 20260504190032 | 24 | 202 | 14.5 | 29.0 | 0.00 | 0.00 | 0.00 | 34 | 1003.6 |
| 20260504185553 | 24 | 192 | 16.1 | 30.6 | 0.00 | 0.00 | 0.00 | 33 | 1003.6 |
| 20260504185032 | 24 | 225 | 17.7 | 29.0 | 0.00 | 0.00 | 0.00 | 34 | 1003.6 |
| 20260504184532 | 24 | 223 | 14.5 | 29.0 | 0.00 | 0.00 | 0.00 | 34 | 1003.6 |
| 20260504184033 | 24 | 219 | 14.5 | 29.0 | 0.00 | 0.00 | 0.00 | 34 | 1004.0 |
| 20260504183533 | 23 | 222 | 16.1 | 35.4 | 0.00 | 0.00 | 0.00 | 34 | 1003.9 |
| 20260504183033 | 23 | 220 | 14.5 | 29.0 | 0.00 | 0.00 | 0.00 | 33 | 1003.9 |
| 20260504182533 | 24 | 213 | 17.7 | 35.4 | 0.00 | 0.00 | 0.00 | 32 | 1004.0 |
| 20260504182053 | 23 | 228 | 14.5 | 27.4 | 0.00 | 0.00 | 0.00 | 33 | 1004.3 |
| 20260504181533 | 23 | 235 | 17.7 | 30.6 | 0.00 | 0.00 | 0.00 | 32 | 1004.3 |
| 20260504181033 | 23 | 220 | 20.9 | 30.6 | 0.00 | 0.00 | 0.00 | 31 | 1004.3 |
| 20260504180553 | 23 | 249 | 16.1 | 33.8 | 0.00 | 0.00 | 0.00 | 33 | 1004.3 |
| 20260504180032 | 23 | 226 | 14.5 | 25.7 | 0.00 | 0.00 | 0.00 | 35 | 1004.3 |
| 20260504175532 | 23 | 223 | 14.5 | 22.5 | 0.00 | 0.00 | 0.00 | 35 | 1004.3 |
| 20260504175033 | 23 | 225 | 14.5 | 24.1 | 0.00 | 0.00 | 0.00 | 35 | 1004.6 |
| 20260504174534 | 23 | 214 | 12.9 | 20.9 | 0.00 | 0.00 | 0.00 | 37 | 1004.6 |
| 20260504174033 | 23 | 222 | 12.9 | 25.7 | 0.00 | 0.00 | 0.00 | 37 | 1004.9 |
| 20260504173552 | 23 | 213 | 16.1 | 27.4 | 0.00 | 0.00 | 0.00 | 38 | 1004.9 |
| 20260504173032 | 23 | 203 | 12.9 | 24.1 | 0.00 | 0.00 | 0.00 | 38 | 1005.0 |
| 20260504172533 | 23 | 216 | 11.3 | 24.1 | 0.00 | 0.00 | 0.00 | 38 | 1005.0 |
| 20260504172053 | 23 | 210 | 14.5 | 27.4 | 0.00 | 0.00 | 0.00 | 38 | 1005.0 |
| 20260504171532 | 22 | 220 | 11.3 | 22.5 | 0.00 | 0.00 | 0.00 | 40 | 1005.3 |
| 20260504171052 | 22 | 213 | 12.9 | 20.9 | 0.00 | 0.00 | 0.00 | 40 | 1005.3 |
| 20260504170553 | 22 | 211 | 12.9 | 22.5 | 0.00 | 0.00 | 0.00 | 41 | 1005.3 |
| 20260504170114 | 22 | 199 | 11.3 | 22.5 | 0.00 | 0.00 | 0.00 | 41 | 1005.6 |
| 20260504151052 | 18 | 211 | 12.9 | 20.9 | 0.00 | 0.00 | 0.00 | 51 | 1006.1 |
| 20260504150533 | 18 | 214 | 11.3 | 20.9 | 0.00 | 0.00 | 0.00 | 51 | 1006.1 |
| 20260504141032 | 16 | 219 | 12.9 | 19.3 | 0.00 | 0.00 | 0.00 | 57 | 1006.3 |
| 20260504140532 | 16 | 215 | 9.7 | 16.1 | 0.00 | 0.00 | 0.00 | 58 | 1006.3 |
| 20260504130532 | 12 | 222 | 9.7 | 16.1 | 0.00 | 0.00 | 0.00 | 66 | 1006.9 |